GFSSE_850_dewp_162.txt.gz
Dewpoint
16 16 11 10 9 9 8 8 7 7 7 7 6 6 6 7 9 10 10 9 9 9 9 8 7 7 9 9 10 9 10 9 9 9 8 8 8 8 9 11 13 13 11
16 16 12 10 10 9 9 9 9 8 8 8 8 7 6 8 10 11 11 10 9 8 9 8 6 7 8 9 9 9 9 9 9 8 8 10 8 8 9 12 13 13 11
16 15 13 11 10 10 10 10 9 9 9 8 8 8 7 7 9 11 11 11 10 8 7 7 6 7 9 9 9 9 9 9 9 8 12 14 9 8 7 10 12 12 10
15 15 13 12 12 11 11 10 10 10 10 9 9 9 9 8 8 8 9 9 9 8 7 6 6 7 9 10 9 10 9 8 8 8 12 12 13 11 8 8 10 10 10
14 15 15 13 12 12 12 11 11 10 10 10 10 9 9 9 8 7 6 6 6 6 6 6 7 8 9 9 9 9 9 8 7 7 13 13 12 10 10 8 8 10 10
14 14 13 13 12 12 12 12 12 12 11 10 10 10 9 9 8 7 6 6 6 6 6 7 7 8 9 9 9 9 8 7 6 8 12 12 11 9 11 8 6 9 10
14 14 14 14 14 14 13 13 13 13 12 12 11 11 11 10 10 9 8 7 7 7 7 7 8 8 9 9 8 8 8 6 5 10 13 13 12 11 10 8 7 9 10
13 13 13 13 13 13 13 13 13 13 12 12 12 12 12 11 11 11 10 10 9 7 7 7 8 7 8 8 9 8 7 6 5 8 11 12 9 10 10 10 7 9 10
3 4 4 5 6 7 9 10 12 13 13 13 12 12 12 12 12 12 12 11 11 10 9 8 7 7 7 7 8 8 7 6 5 5 11 13 10 10 11 10 6 8 9
-3 -5 -5 -4 -2 -1 -0 -0 -2 1 3 4 6 10 12 12 12 12 12 12 11 11 11 11 9 8 7 7 7 7 7 7 5 4 8 12 11 9 9 11 7 7 9
-3 -6 -8 -9 -9 -9 -9 -9 -9 -10 -9 -9 -9 -9 -8 -0 10 12 12 11 11 12 12 12 12 11 9 8 7 7 7 6 5 4 5 10 11 10 9 9 8 7 8
-2 -6 -9 -10 -10 -10 -10 -10 -9 -10 -10 -10 -10 -10 -10 -10 -11 -10 -8 -0 9 12 11 11 11 12 12 11 9 7 8 7 7 3 7 11 11 10 10 7 8 7 8
-2 -6 -8 -9 -9 -9 -10 -9 -9 -9 -9 -8 -9 -9 -10 -10 -10 -10 -9 -9 -9 -7 8 12 12 12 12 13 12 12 11 12 11 10 7 11 10 9 10 8 7 7 7
-1 -5 -7 -8 -9 -8 -8 -8 -8 -9 -10 -10 -9 -11 -11 -11 -12 -11 -11 -9 -7 -4 -2 -1 4 11 12 12 13 12 11 12 11 11 9 11 11 10 9 9 6 7 7
-2 -6 -7 -7 -8 -8 -9 -9 -10 -9 -9 -8 -8 -9 -9 -9 -10 -9 -9 -8 -4 1 1 1 2 2 3 11 12 13 12 12 10 12 12 11 10 10 10 10 7 7 7
-2 -5 -7 -8 -8 -9 -9 -9 -9 -8 -7 -6 -6 -7 -8 -8 -9 -8 -8 -6 -2 -4 -3 -2 -1 -1 -1 2 3 11 13 12 12 12 11 11 11 11 10 10 9 6 7
-1 -3 -7 -8 -8 -8 -8 -8 -7 -7 -5 -5 -3 -6 -7 -7 -8 -7 -7 -6 -6 -5 -5 -5 -5 -3 1 4 4 4 11 11 12 12 13 12 11 10 10 10 10 8 7
-0 -2 -4 -6 -7 -8 -8 -8 -6 -5 -3 -2 -1 -5 -6 -7 -7 -7 -7 -6 -6 -5 -5 -5 -4 -5 -4 1 4 2 8 9 11 11 12 12 12 11 11 10 10 9 7
-1 -2 -3 -7 -8 -9 -8 -5 -1 -2 -1 -1 -2 -4 -6 -5 -6 -6 -6 -5 -6 -5 -4 -3 -4 -4 -5 -5 -4 -1 2 6 9 11 11 12 12 11 11 10 11 10 9
-2 -3 -3 -6 -8 -8 -4 -1 -1 -0 1 1 0 -1 -3 -3 -5 -4 -4 -4 -4 -5 -4 -4 -3 -2 -2 -0 -1 -4 -4 -4 1 11 12 12 12 11 11 11 11 11 11
-2 -3 -4 -5 -6 -7 -5 -3 -4 -2 0 1 0 0 -1 -0 -1 -2 -4 -4 -3 -3 -2 -2 -2 -2 -2 -1 -1 -2 -4 -5 -6 0 10 10 12 11 11 11 11 11 12
-2 -4 -3 -3 -5 -7 -7 -3 -5 -2 -1 0 -0 -0 -1 -0 -0 -1 -3 -4 -3 -3 -4 -3 -2 -1 -1 -1 0 1 3 -0 3 7 8 9 8 11 11 12 11 10 10
-1 -2 -2 -2 -2 -5 -6 -3 -4 -2 -1 -1 -1 -2 -1 -1 -1 -1 -3 -4 -4 -4 -4 -3 -3 -2 -2 -1 -1 -0 1 3 3 3 8 10 10 8 7 11 12 11 9
-2 -2 -2 -2 -2 -3 -5 -6 -5 -4 -3 -3 -2 -3 -2 -2 -1 -2 -4 -4 -3 -3 -3 -3 -3 -3 -3 -2 -2 -1 -0 1 1 2 1 5 9 10 10 9 11 11 11
-3 -2 -2 -2 -2 -3 -4 -6 -5 -5 -5 -4 -4 -4 -5 -4 -3 -3 -5 -5 -4 -3 -3 -3 -3 -3 -3 -3 -3 -2 -2 -1 -0 1 2 3 4 7 10 11 10 11 11
-3 -2 -2 -3 -3 -4 -4 -3 -4 -3 -4 -5 -6 -6 -6 -5 -5 -5 -6 -5 -4 -4 -4 -4 -4 -4 -4 -3 -4 -3 -3 -2 -1 -0 1 2 4 5 6 8 10 11 11

GFSSE_850_dewp_165.txt.gz
Dewpoint
15 13 11 9 9 8 8 8 7 7 7 7 6 3 3 5 7 10 10 9 9 8 8 7 6 7 8 9 9 9 9 9 9 9 8 9 8 8 8 10 12 12 10
15 15 12 10 9 9 9 9 8 8 8 8 7 6 5 5 7 8 9 9 9 8 8 7 5 6 8 8 9 9 9 9 9 8 10 10 9 9 8 9 12 11 11
15 15 12 11 10 10 9 9 9 9 8 8 8 8 7 6 6 8 9 8 8 8 7 7 6 6 8 8 8 9 9 9 9 9 13 11 10 9 9 8 10 10 10
15 14 13 11 11 11 10 10 10 10 9 9 9 9 8 7 6 7 7 8 8 7 7 6 6 7 8 8 8 8 8 8 9 8 11 12 8 10 8 8 9 10 10
14 14 15 12 12 12 12 11 11 11 10 10 9 9 9 9 8 7 6 6 7 7 7 6 6 7 8 8 8 7 7 7 9 8 11 13 11 11 11 10 7 9 10
14 14 14 12 12 12 12 12 12 12 12 11 10 10 10 10 9 8 7 6 6 6 6 7 7 7 8 7 7 7 6 6 6 8 11 12 12 12 11 10 6 8 10
14 14 13 14 13 13 12 12 12 12 13 12 12 11 11 11 11 10 10 9 8 7 7 7 7 7 6 6 6 6 5 4 5 6 12 12 13 12 9 10 9 7 9
13 13 13 12 12 11 10 11 12 13 12 12 12 12 12 12 12 12 11 11 10 10 9 8 7 7 6 6 6 6 6 4 3 4 9 12 12 12 10 10 10 7 9
3 4 4 5 5 5 5 8 9 10 11 11 12 11 12 12 12 11 11 12 12 11 11 10 9 8 7 7 7 7 7 6 3 2 4 11 13 12 11 11 10 7 8
-4 -5 -6 -5 -4 -6 -7 -8 -8 -9 -9 -10 -8 -6 2 9 11 12 11 11 11 12 12 12 11 11 10 8 8 7 7 8 6 3 2 5 11 12 11 10 8 9 7
-5 -7 -8 -9 -9 -10 -9 -10 -10 -10 -9 -10 -10 -10 -10 -10 -7 -2 6 9 11 11 12 12 12 12 12 11 10 9 8 7 7 5 2 3 6 11 12 11 9 8 7
-5 -9 -9 -9 -10 -10 -10 -10 -10 -9 -9 -10 -9 -9 -9 -9 -10 -10 -9 -9 -9 -0 10 12 12 12 12 12 12 12 11 10 8 8 7 4 9 11 11 11 10 6 7
-4 -7 -8 -9 -9 -10 -9 -9 -8 -8 -9 -9 -10 -10 -11 -12 -12 -12 -12 -11 -10 -9 -8 -3 9 11 12 13 13 13 13 11 11 12 11 11 7 11 11 11 10 8 6
-3 -6 -8 -8 -8 -8 -8 -8 -9 -9 -10 -10 -11 -10 -11 -11 -11 -11 -11 -11 -11 -10 -10 -8 -6 -5 -1 7 12 13 13 13 12 11 10 9 9 11 11 11 10 10 6
-3 -5 -6 -7 -7 -8 -8 -9 -9 -9 -9 -9 -11 -10 -11 -10 -10 -10 -10 -10 -10 -9 -7 -7 -7 -6 -6 -4 -2 2 12 13 13 12 12 8 10 11 11 10 10 10 8
-3 -4 -5 -6 -7 -7 -8 -9 -8 -9 -8 -8 -9 -8 -9 -9 -9 -9 -9 -9 -8 -9 -8 -8 -8 -8 -8 -7 -5 -2 -1 8 13 13 12 10 8 11 12 11 11 10 9
-2 -4 -5 -6 -7 -7 -7 -7 -8 -7 -6 -7 -7 -7 -8 -9 -8 -8 -8 -8 -8 -8 -8 -7 -8 -8 -8 -8 -7 -5 -2 -2 5 11 13 13 11 11 8 12 11 10 10
-2 -4 -5 -6 -7 -7 -7 -6 -6 -4 -3 -4 -6 -7 -8 -9 -8 -8 -8 -8 -7 -7 -7 -7 -7 -7 -7 -7 -7 -7 -7 -7 -5 -3 9 12 13 12 12 12 11 10 10
-3 -3 -4 -5 -7 -7 -6 -6 -4 -2 -0 -2 -5 -7 -7 -8 -8 -8 -7 -7 -7 -7 -7 -6 -6 -6 -7 -7 -7 -7 -7 -7 -8 -9 -6 4 11 12 12 12 12 11 10
-2 -2 -3 -5 -7 -8 -6 -7 -5 -2 0 0 -2 -4 -6 -7 -7 -8 -6 -7 -6 -6 -6 -6 -6 -6 -6 -5 -7 -8 -9 -7 -6 -6 -8 -7 3 10 12 12 12 12 11
-2 -3 -3 -4 -6 -8 -8 -8 -7 -4 -0 0 -1 -3 -5 -5 -7 -8 -6 -6 -6 -6 -5 -5 -5 -5 -5 -5 -5 -7 -9 -6 -3 -2 -1 -3 -1 5 11 12 12 11 11
-2 -2 -2 -3 -5 -7 -8 -7 -5 -1 -0 -0 -1 -2 -3 -3 -4 -5 -6 -7 -6 -6 -5 -5 -4 -5 -4 -3 -2 -2 -1 -3 2 -6 2 7 8 9 9 10 9 11 11
-2 -2 -2 -2 -4 -6 -8 -7 -5 -2 -2 -2 -4 -4 -2 -2 -4 -5 -6 -7 -6 -6 -6 -5 -5 -4 -4 -3 -3 -2 -1 -0 -2 -2 -4 -4 2 6 8 9 10 10 10
-2 -2 -2 -3 -4 -6 -7 -8 -7 -7 -6 -4 -4 -4 -4 -4 -4 -5 -6 -7 -7 -6 -6 -5 -5 -4 -3 -3 -3 -3 -3 -2 -2 -1 -3 -2 -1 -2 1 4 7 10 11
-3 -3 -3 -3 -4 -6 -7 -7 -6 -6 -5 -5 -5 -6 -6 -5 -5 -6 -7 -7 -6 -4 -5 -4 -4 -3 -4 -4 -4 -4 -3 -3 -2 -2 -1 -1 -2 -0 -1 -0 3 8 10
-4 -3 -3 -3 -4 -6 -4 -3 -4 -4 -4 -5 -6 -7 -6 -7 -6 -6 -7 -7 -6 -6 -5 -4 -4 -5 -4 -5 -5 -5 -5 -4 -4 -4 -3 -2 -1 -0 1 -0 -1 -1 6

GFSSE_850_dewp_171.txt.gz
Dewpoint
12 9 8 9 8 8 7 6 6 7 7 6 4 3 5 7 9 9 9 9 9 8 8 7 5 6 7 8 8 9 10 10 9 8 9 9 9 9 10 10 10 10 10
13 11 10 9 9 9 9 8 8 8 8 8 7 6 5 5 6 7 8 8 8 7 7 6 5 6 7 7 7 8 9 9 9 9 10 9 9 9 9 10 11 9 10
15 14 13 10 10 10 10 9 9 9 9 8 8 8 8 7 6 7 7 7 7 7 7 6 5 6 7 7 7 8 8 9 9 9 11 9 10 10 9 9 10 9 10
14 14 14 11 11 11 10 10 10 10 9 9 9 9 9 9 8 7 7 7 7 7 7 6 6 6 6 8 7 7 8 8 9 8 9 11 11 10 10 10 9 7 9
13 14 14 12 12 12 12 11 11 11 10 10 10 10 9 10 10 9 9 7 7 6 6 6 6 6 6 7 7 7 7 8 8 8 8 11 10 10 11 10 10 7 8
13 13 13 12 12 12 12 11 11 11 12 11 11 10 10 10 10 10 10 9 9 8 7 7 7 7 7 7 7 7 7 7 8 8 8 10 11 11 11 10 10 9 8
13 13 13 13 12 12 11 10 10 11 11 12 12 12 11 11 11 11 11 11 10 10 10 9 8 8 8 8 8 8 8 8 6 7 7 9 12 12 11 10 10 9 9
13 14 14 13 12 10 8 8 9 9 10 11 12 12 12 12 12 12 12 12 11 11 11 11 10 10 9 9 7 8 8 8 7 6 5 7 10 11 12 11 10 10 9
13 12 12 12 9 7 5 6 6 5 3 3 4 4 5 6 8 9 11 11 11 11 11 11 11 11 11 11 10 9 8 8 7 7 5 5 7 10 11 11 11 10 10
7 5 5 6 4 -0 -2 -5 -8 -9 -9 -10 -10 -9 -9 -7 -5 -4 -1 -1 4 8 11 11 11 12 12 12 12 12 11 9 8 8 7 6 5 6 8 11 12 11 11
-3 -4 -3 -2 -3 -5 -5 -7 -9 -9 -9 -9 -9 -9 -9 -9 -9 -9 -9 -9 -9 -9 -8 -8 2 10 12 12 12 12 12 12 11 9 8 7 7 6 6 9 11 11 11
-5 -6 -6 -5 -5 -5 -6 -8 -9 -9 -9 -9 -9 -9 -9 -10 -11 -11 -11 -12 -12 -12 -11 -10 -9 -7 -1 5 10 12 12 12 12 11 10 9 8 8 6 7 9 11 11
-3 -5 -6 -6 -6 -5 -6 -7 -8 -8 -8 -9 -9 -10 -10 -11 -11 -11 -11 -11 -11 -12 -11 -11 -10 -11 -9 -8 -5 0 5 8 10 12 12 10 10 9 11 10 10 12 12
-3 -5 -6 -6 -7 -6 -6 -7 -8 -8 -8 -8 -9 -10 -10 -11 -12 -12 -13 -13 -12 -12 -12 -12 -12 -11 -11 -11 -11 -11 -9 -6 -2 3 8 11 11 10 11 12 10 10 12
-3 -5 -5 -5 -5 -5 -5 -6 -6 -6 -6 -7 -8 -9 -10 -11 -11 -12 -12 -12 -12 -12 -12 -12 -11 -11 -11 -11 -11 -11 -11 -11 -10 -8 -6 1 9 12 10 10 10 10 11
-3 -4 -5 -4 -4 -3 -3 -3 -4 -4 -5 -6 -8 -9 -9 -10 -11 -12 -12 -11 -11 -11 -11 -11 -11 -11 -11 -11 -11 -10 -10 -11 -11 -11 -10 -8 -2 4 12 12 10 10 10
-3 -4 -4 -4 -4 -3 -1 -2 -3 -4 -5 -6 -7 -9 -10 -11 -12 -12 -12 -12 -11 -11 -10 -11 -11 -11 -11 -12 -11 -11 -11 -11 -10 -11 -11 -10 -8 -2 5 12 12 11 11
-3 -3 -3 -4 -4 -3 -3 -2 -2 -3 -4 -5 -6 -8 -9 -11 -11 -12 -12 -13 -12 -12 -12 -12 -13 -14 -14 -15 -16 -16 -15 -13 -12 -10 -8 -8 -8 -8 -5 5 10 12 12
-2 -3 -3 -4 -4 -3 -1 -1 -2 -3 -3 -4 -5 -7 -9 -10 -11 -11 -12 -12 -12 -12 -13 -13 -13 -14 -15 -16 -16 -17 -17 -15 -12 -9 -5 -6 -4 -4 -6 -5 2 5 12
-3 -3 -4 -4 -5 -3 -1 -0 -0 -1 -1 -2 -3 -5 -7 -9 -10 -11 -11 -12 -12 -13 -13 -13 -13 -13 -14 -15 -17 -17 -16 -14 -10 -5 -10 -6 -4 2 2 -0 -1 2 9
-2 -3 -4 -5 -5 -5 -2 -1 -1 -1 -3 -3 -4 -5 -7 -9 -9 -10 -11 -12 -12 -12 -12 -13 -13 -13 -13 -14 -18 -23 -16 -13 -6 -9 -9 -8 -7 -2 -4 2 4 4 5
-2 -3 -4 -5 -5 -6 -5 -3 -2 -2 -2 -3 -3 -6 -8 -8 -10 -10 -11 -11 -12 -12 -12 -12 -11 -11 -10 -9 -8 -8 -9 -12 -10 -10 -8 -9 -8 -9 -7 -7 -5 2 5
-2 -3 -4 -4 -5 -6 -7 -5 -3 -2 -2 -3 -5 -7 -8 -9 -9 -10 -11 -11 -11 -12 -12 -11 -10 -9 -8 -7 -6 -5 -4 -3 -5 -7 -8 -8 -8 -8 -8 -7 -6 -5 -2
-3 -3 -3 -4 -5 -6 -7 -6 -4 -3 -5 -6 -6 -7 -8 -9 -9 -10 -11 -12 -11 -11 -11 -10 -9 -8 -7 -6 -5 -5 -4 -5 -4 -4 -5 -7 -6 -7 -6 -5 -6 -5 -4
-3 -3 -3 -4 -5 -6 -7 -6 -5 -6 -6 -6 -6 -6 -7 -9 -10 -11 -11 -12 -12 -11 -10 -9 -8 -7 -6 -6 -5 -5 -5 -5 -4 -5 -5 -6 -6 -6 -5 -5 -5 -5 -3
-3 -3 -3 -4 -5 -5 -5 -5 -5 -5 -5 -6 -7 -7 -8 -9 -11 -12 -12 -12 -12 -11 -10 -9 -8 -7 -6 -6 -5 -6 -6 -6 -6 -7 -7 -6 -6 -5 -5 -5 -5 -5 -4

GFSSE_850_dewp_174.txt.gz
Dewpoint
11 10 9 8 7 7 6 7 7 7 7 6 4 3 5 7 9 10 9 9 8 8 7 6 5 6 7 8 8 8 9 9 8 8 8 9 8 9 9 9 10 9 9
13 11 9 9 8 8 8 8 8 7 7 8 7 5 4 5 6 7 7 7 7 7 7 6 5 6 7 7 8 8 9 9 8 8 10 9 9 10 10 10 10 9 9
13 12 10 10 9 9 9 9 9 8 8 8 8 8 8 7 7 7 7 7 7 7 7 6 6 6 6 7 8 8 8 9 9 9 10 9 10 10 10 9 10 9 8
14 14 13 11 10 10 10 10 10 9 9 9 9 9 9 9 9 8 7 6 6 6 6 5 5 6 5 7 7 8 8 8 9 9 9 11 12 10 10 10 10 8 8
14 14 13 12 11 11 11 11 11 11 10 10 10 10 10 10 10 10 9 8 7 6 5 5 5 5 6 6 7 8 8 8 8 8 8 9 11 10 11 10 10 8 8
13 13 13 12 12 12 12 12 12 12 12 11 11 11 10 10 10 10 10 10 9 9 7 6 5 5 6 6 6 7 8 8 8 7 7 7 11 11 11 10 10 9 9
12 13 13 13 12 12 12 11 11 11 10 11 11 12 12 11 11 11 11 11 11 11 11 10 9 8 7 6 5 5 6 7 7 7 7 7 10 12 12 11 10 10 9
12 13 13 13 13 12 9 8 8 9 9 10 11 11 11 12 11 12 12 12 12 11 11 11 11 11 10 10 8 6 6 6 6 7 6 7 7 12 12 12 11 10 10
12 13 13 12 11 9 5 4 5 4 3 3 4 2 2 2 3 4 2 4 6 9 11 11 11 11 11 11 11 10 8 6 6 7 7 6 7 7 10 11 11 11 10
12 11 11 9 6 3 0 0 -5 -8 -9 -9 -9 -9 -9 -9 -10 -9 -8 -7 -5 -5 -4 -1 5 10 12 12 12 11 11 10 9 7 7 8 8 7 6 7 10 11 11
7 3 4 4 1 -3 -6 -7 -8 -8 -9 -9 -9 -8 -8 -8 -9 -9 -9 -10 -11 -11 -11 -10 -10 -9 -2 7 11 12 12 11 11 10 9 8 8 8 8 6 6 10 11
-3 -4 -4 -3 -3 -5 -5 -6 -6 -7 -8 -8 -8 -9 -9 -9 -10 -10 -11 -11 -11 -11 -12 -12 -12 -12 -11 -9 -4 4 9 11 11 11 11 11 10 9 8 7 7 7 9
-4 -5 -6 -7 -6 -5 -5 -5 -6 -6 -7 -8 -8 -9 -9 -10 -11 -11 -11 -11 -12 -13 -13 -13 -13 -13 -13 -12 -12 -10 -8 -3 4 6 9 10 11 11 9 10 10 9 8
-2 -4 -5 -6 -6 -7 -7 -6 -6 -6 -7 -8 -8 -9 -9 -10 -11 -11 -12 -13 -13 -14 -14 -14 -13 -13 -12 -12 -12 -12 -12 -11 -10 -8 -4 4 5 11 11 10 11 12 9
-2 -4 -5 -5 -5 -5 -5 -6 -6 -6 -6 -7 -8 -9 -10 -10 -11 -12 -13 -14 -14 -14 -14 -14 -14 -13 -13 -12 -12 -12 -12 -12 -12 -12 -11 -7 -4 2 10 12 11 12 12
-2 -3 -5 -5 -5 -5 -5 -5 -5 -6 -6 -7 -7 -9 -10 -11 -11 -12 -12 -13 -14 -15 -15 -14 -14 -14 -14 -14 -13 -13 -12 -12 -11 -11 -11 -10 -9 -5 -1 6 12 12 11
-2 -3 -4 -4 -4 -3 -4 -4 -5 -5 -5 -6 -7 -8 -9 -10 -11 -12 -12 -12 -13 -13 -14 -15 -15 -16 -17 -17 -17 -17 -17 -16 -13 -9 -8 -8 -8 -8 -5 1 4 12 12
-2 -3 -3 -3 -3 -3 -4 -3 -3 -4 -4 -5 -6 -7 -9 -10 -11 -11 -11 -12 -13 -13 -14 -15 -16 -17 -18 -19 -19 -19 -19 -17 -12 -8 -6 -6 -4 -5 -5 -6 -3 5 10
-2 -3 -3 -4 -4 -4 -4 -3 -3 -3 -4 -5 -6 -7 -8 -9 -10 -11 -11 -12 -13 -13 -14 -14 -15 -16 -18 -20 -21 -20 -19 -15 -10 -5 -7 -7 -4 -0 0 1 -2 -4 1
-2 -3 -4 -4 -4 -4 -4 -3 -3 -3 -3 -4 -5 -6 -7 -8 -9 -10 -11 -12 -12 -13 -14 -15 -15 -16 -18 -20 -23 -21 -17 -13 -5 -5 -11 -6 -6 -5 -4 -4 -1 1 -0
-2 -3 -4 -4 -5 -5 -4 -4 -3 -4 -4 -4 -5 -6 -7 -9 -10 -10 -11 -11 -12 -13 -14 -15 -16 -17 -18 -20 -22 -22 -15 -12 -2 -11 -6 -10 -8 -9 -9 -9 -7 -7 -2
-3 -3 -4 -4 -5 -5 -5 -5 -4 -4 -4 -4 -5 -6 -8 -9 -10 -10 -11 -12 -13 -14 -14 -14 -15 -14 -13 -14 -14 -15 -13 -11 -7 -10 -9 -9 -9 -9 -9 -8 -7 -7 -6
-2 -3 -4 -4 -5 -5 -6 -5 -4 -3 -3 -4 -6 -7 -8 -9 -9 -11 -12 -12 -13 -13 -14 -13 -12 -12 -11 -9 -9 -7 -6 -5 -8 -9 -9 -9 -8 -8 -8 -7 -6 -6 -6
-2 -3 -3 -4 -4 -5 -6 -5 -3 -3 -4 -6 -7 -8 -9 -9 -10 -11 -12 -13 -14 -14 -14 -12 -11 -10 -8 -8 -7 -6 -5 -5 -5 -5 -8 -7 -7 -7 -6 -6 -6 -6 -5
-3 -3 -3 -3 -4 -5 -6 -6 -6 -6 -6 -6 -6 -7 -8 -10 -11 -13 -14 -13 -13 -13 -12 -11 -10 -9 -7 -6 -6 -6 -6 -5 -5 -6 -5 -6 -7 -7 -6 -6 -6 -6 -6
-2 -2 -3 -4 -4 -5 -6 -5 -6 -6 -7 -7 -7 -8 -10 -12 -13 -14 -14 -14 -13 -12 -12 -11 -10 -9 -7 -6 -6 -6 -6 -7 -7 -7 -7 -6 -6 -7 -6 -7 -7 -6 -6